Meteopurmerend
purmerend
Purmerend - Baaienwijk



My webcam  My webcam


Onweer radar Meer informatie blitzortung!


Regen radar Meer informatie rain snow radar


Bezoek onze andere website:

CandyAppleRed WebdesignWebdesign Purmerend Candy Apple Red

MeteopurmerendBlog

Template documentation
and downloads



Wind van: 21-10-2021 08:00 tot: 20:00 waarschuwing voor: Wind niveau: Geel info button
Met name bij buien kans op zware windstoten rond 75 km/uur, in de kustgebieden van 80-90 km/uur.Kans op windstoten.Verkeer en buitenactiviteiten kunnen hinder ondervinden.Volg weerberichten en waarschuwingen.

15 daagse weersverwachting Molde (NO)

  • Overzicht
  • Per uur
  • 15 dagen
  • Extra
  • Vergelijk
  • Kaarten
  • Dagkaart
  • Meer »
  • Info
  • Statistieken
  • Directe link
    Temp 6h Neerslag Wind  
 08:38     17:55    Daglengte: 9:17 Vandaag
14:00
12.1 mm
12
20:00
17.1 mm
12
 08:41     17:52    Daglengte: 9:11 Morgen
02:00
26.7 mm
11
08:00
35.3 mm
10
14:00
42.2 mm
8
20:00
45.2 mm
7
 08:44     17:48    Daglengte: 9:04 Zaterdag 23 Okt
02:00
48.6 mm
7
08:00
39.2 mm
3
14:00
12.8 mm
3
20:00
 
4
 08:47     17:45    Daglengte: 8:58 Zondag 24 Okt
02:00
26.1 mm
6
08:00
13.0 mm
3
warningclass
Locatie info
Region: Møre og Romsdal
Latitude: 62.7375°N
Longitude: 7.1591°E
3 masl
Temp/Neerslag /Baro Onweer/Dauwpunt
    Temp Baro 1h Neerslag Dauwpunt Wind UV Bewolking  
 08:38     17:55    Daglengte: 9:17 Vandaag
12:00
Voelt als: 1.6°
977.4 hPa 7.4 mm
49%
3.5°
11
Windvlaag: -1.8 m/s
86%
13:00
Voelt als: 1.6°
978.3 hPa 2.2 mm
82%
3.6°
11
Windvlaag: -1.6 m/s
86%
14:00
Voelt als: 1.5°
978.9 hPa 2.5 mm
82%
3.4°
12
Windvlaag: -2.1 m/s
86%
15:00
Voelt als: 1.4°
979.6 hPa 2.5 mm
82%
3.4°
12
Windvlaag: -2.3 m/s
86%
16:00
Voelt als: 1.2°
980.2 hPa 2.6 mm
82%
3.2°
12
Windvlaag: -2.7 m/s
86%
17:00
Voelt als: 1.0°
980.7 hPa 2.7 mm
82%
3.6°
12
Windvlaag: -1.6 m/s
86%
18:00
Voelt als: 0.9°
980.9 hPa 3.0 mm
82%
3.1°
12
Windvlaag: -1.6 m/s
75%
19:00
Voelt als: 0.8°
981.5 hPa 2.9 mm
82%
3.2°
12
Windvlaag: -1.6 m/s
47%
20:00
Voelt als: 0.8°
981.7 hPa 3.4 mm
82%
3.6°
12
Windvlaag: -0.5 m/s
75%
21:00
Voelt als: 0.9°
982.1 hPa 3.7 mm
82%
3.6°
12
Windvlaag: 0.2 m/s
79%
22:00
Voelt als: 0.8°
982.3 hPa 4.2 mm
82%
3.5°
12
Windvlaag: 0.6 m/s
86%
23:00
Voelt als: 0.8°
982.5 hPa 4.3 mm
82%
3.4°
12
Windvlaag: 1.6 m/s
86%
 08:41     17:52    Daglengte: 9:11 Morgen
00:00
Voelt als: 0.9°
982.6 hPa 4.5 mm
82%
3.3°
12
Windvlaag: 0.7 m/s
86%
01:00
Voelt als: 1.0°
982.6 hPa 4.8 mm
82%
3.5°
12
Windvlaag: 2.1 m/s
69%
02:00
Voelt als: 1.2°
982.5 hPa 5.1 mm
82%
3.9°
11
Windvlaag: 1.9 m/s
85%
03:00
Voelt als: 1.4°
982.5 hPa 5.3 mm
82%
3.9°
11
Windvlaag: 3.3 m/s
68%
04:00
Voelt als: 1.5°
982.5 hPa 5.5 mm
82%
4.1°
11
Windvlaag: 4.1 m/s
81%
05:00
Voelt als: 1.5°
982.4 hPa 5.9 mm
82%
4.2°
11
Windvlaag: 4.8 m/s
86%
06:00
Voelt als: 1.7°
982.4 hPa 6.0 mm
82%
4.2°
11
Windvlaag: 6.5 m/s
86%
07:00
Voelt als: 1.9°
982.5 hPa 6.2 mm
82%
4.3°
11
Windvlaag: 5.4 m/s
86%
08:00
Voelt als: 2.0°
983.0 hPa 6.5 mm
82%
4.4°
10
Windvlaag: 6.4 m/s
86%
09:00
Voelt als: 2.4°
983.6 hPa 6.8 mm
82%
4.1°
9
Windvlaag: 2.5 m/s
86%
10:00
Voelt als: 3.2°
984.8 hPa 6.8 mm
82%
4.7°
8
Windvlaag: 1.4 m/s
86%
11:00
Voelt als: 3.3°
986.2 hPa 6.9 mm
82%
4.8°
8
Windvlaag: -3.1 m/s
86%
12:00
Voelt als: 3.3°
987.9 hPa 7.0 mm
82%
4.8°
8
Windvlaag: -4.7 m/s
86%
13:00
Voelt als: 3.2°
989.3 hPa 7.3 mm
82%
4.6°
8
Windvlaag: -4.4 m/s
86%
14:00
Voelt als: 3.2°
990.8 hPa 7.3 mm
82%
4.6°
8
Windvlaag: -3.9 m/s
86%
15:00
Voelt als: 3.1°
992.3 hPa 7.3 mm
82%
4.3°
8
Windvlaag: -4.1 m/s
86%
16:00
Voelt als: 3.1°
994.0 hPa 7.3 mm
82%
4.6°
8
Windvlaag: -4.9 m/s
86%
17:00
Voelt als: 3.1°
995.7 hPa 7.4 mm
82%
4.8°
8
Windvlaag: -5 m/s
86%
18:00
Voelt als: 3.0°
997.4 hPa 7.6 mm
82%
4.6°
8
Windvlaag: -5 m/s
86%
19:00
Voelt als: 3.0°
998.9 hPa 7.8 mm
82%
4.6°
8
Windvlaag: -4.6 m/s
85%
20:00
Voelt als: 3.1°
1000.3 hPa 7.8 mm
82%
4.6°
7
Windvlaag: -4 m/s
85%
21:00
Voelt als: 3.1°
1001.8 hPa 8.1 mm
82%
4.8°
7
Windvlaag: -2.6 m/s
86%
22:00
Voelt als: 3.0°
1003.1 hPa 8.3 mm
82%
4.7°
7
Windvlaag: -2.4 m/s
83%
23:00
Voelt als: 3.2°
1004.4 hPa 7.9 mm
82%
4.8°
7
Windvlaag: -2.8 m/s
51%
 08:44     17:48    Daglengte: 9:04 Zaterdag 23 Okt
00:00
Voelt als: 3.2°
1005.7 hPa 8.2 mm
82%
4.8°
7
Windvlaag: -3.3 m/s
81%
01:00
Voelt als: 3.2°
1006.9 hPa 8.0 mm
82%
4.8°
7
Windvlaag: -3.6 m/s
62%
02:00
Voelt als: 3.4°
1008.0 hPa 8.0 mm
82%
4.8°
7
Windvlaag: -3.4 m/s
67%
03:00
Voelt als: 3.5°
1008.9 hPa
82%
4.7°
6
Windvlaag: -3.9 m/s
62%
04:00
Voelt als: 3.8°
1009.8 hPa 7.9 mm
82%
4.8°
6
Windvlaag: -3.2 m/s
61%
05:00
Voelt als: 3.0°
1010.9 hPa 7.8 mm
97%
3.3°
5
Windvlaag: -0.8 m/s
68%
06:00
Voelt als: 2.7°
1011.6 hPa 7.8 mm
94%
3.2°
4
Windvlaag: -2 m/s
49%
07:00
Voelt als: 2.9°
1012.3 hPa 7.8 mm
94%
2.9°
4
Windvlaag: -2.6 m/s
56%
08:00
Voelt als: 3.2°
1012.8 hPa 7.9 mm
85%
2.7°
3
Windvlaag: -2.5 m/s
61%
09:00
Voelt als: 3.7°
1013.6 hPa 12.8 mm
86%
3.2°
3
Windvlaag: -2.6 m/s
78%
10:00
Voelt als: 4.5°
1014.3 hPa
81%
3.3°
2
Windvlaag: 1.4 m/s
78%
11:00
Voelt als: 5.6°
1014.9 hPa
75%
3.3°
2
Windvlaag: 2.3 m/s
72%
12:00
Voelt als: 5.2°
1015.4 hPa
31%
4.1°
3
Windvlaag: 3.7 m/s
84%
13:00
Voelt als: 5.3°
1016.0 hPa
25%
3.3°
4
Windvlaag: 4.9 m/s
78%
14:00
Voelt als: 5.9°
1016.1 hPa
25%
1.7°
3
Windvlaag: 4.3 m/s
97%
15:00
Voelt als: 6.7°
1016.1 hPa
21%
2.2°
2
Windvlaag: 2.8 m/s
94%
16:00
Voelt als: 6.7°
1015.9 hPa
21%
2.3°
2
Windvlaag: 1.3 m/s
88%
17:00
Voelt als: 5.5°
1015.4 hPa
21%
2.6°
2
Windvlaag: 1.2 m/s
94%
18:00
Voelt als: 4.3°
1015.0 hPa
21%
2.3°
3
Windvlaag: 0.8 m/s
99%
19:00
Voelt als: 3.8°
1014.4 hPa
21%
2.4°
4
Windvlaag: 0.4 m/s
92%
20:00
Voelt als: 3.6°
1013.8 hPa
21%
2.3°
4
Windvlaag: -0.5 m/s
91%
21:00
Voelt als: 3.4°
1013.3 hPa
21%
2.1°
5
Windvlaag: -0.3 m/s
97%
22:00
Voelt als: 3.5°
1012.5 hPa
70%
1.9°
5
Windvlaag: -0.3 m/s
98%
23:00
Voelt als: 3.5°
1012.1 hPa
24%
2.5°
6
Windvlaag: 0 m/s
93%
 08:47     17:45    Daglengte: 8:58 Zondag 24 Okt
00:00
Voelt als: 3.9°
1011.1 hPa
100%
2.9°
5
Windvlaag: -0.9 m/s
98%
01:00
Voelt als: 6.0°
1010.2 hPa 13.0 mm
100%
2.9°
3
Windvlaag: 0.5 m/s
100%
02:00
Voelt als: 5.2°
1009.4 hPa 13.1 mm
100%
4.0°
6
Windvlaag: 9.8 m/s
98%
03:00
Voelt als: 4.6°
1009.0 hPa 13.0 mm
100%
3.2°
4
Windvlaag: 15.9 m/s
99%
04:00
Voelt als: 5.2°
1007.9 hPa
100%
4.0°
4
Windvlaag: 17.7 m/s
96% warningclass
05:00
Voelt als: 6.0°
1007.1 hPa
99%
4.4°
3
Windvlaag: 16.8 m/s
98%
06:00
Voelt als: 6.6°
1006.2 hPa
21%
5.2°
3
Windvlaag: 18 m/s
98% warningclass
07:00
Voelt als: 7.7°
1005.5 hPa
22%
5.7°
3
Windvlaag: 17 m/s
98%
08:00
Voelt als: 7.9°
1005.3 hPa
21%
6.2°
3
Windvlaag: 18.3 m/s
98% warningclass
09:00
10°
Voelt als: 6.1°
1006.9 hPa 38.6 mm
100%
6.4°
10
Windvlaag: 18.4 m/s
100% warningclass
10:00
10°
1006.6 hPa 38.6 mm
100%
6.6°
11
Windvlaag: 18.1 m/s
100% warningclass
11:00
11°
1006.5 hPa 38.6 mm
100%
6.8°
12
Windvlaag: 18 m/s
100% warningclass
Temp/Neerslag /Baro Onweer/Dauwpunt
    Temp Baro Neerslag Dauwpunt Wind Bewolking  
 08:38     17:55    Daglengte: 9:17 Vandaag
14:00
Voelt als: 1.5°
978.9 hPa 12.1 mm 3.4°
12
86%
17:00
Voelt als: 1.0°
980.7 hPa 7.8 mm 3.6°
12
86%
20:00
Voelt als: 0.8°
981.7 hPa 9.3 mm 3.6°
12
75%
23:00
Voelt als: 0.8°
982.5 hPa 12.3 mm 3.4°
12
86%
 08:41     17:52    Daglengte: 9:11 Morgen
02:00
Voelt als: 1.2°
982.5 hPa 14.4 mm 3.9°
11
85%
05:00
Voelt als: 1.5°
982.4 hPa 16.7 mm 4.2°
11
86%
08:00
Voelt als: 2.0°
983.0 hPa 18.6 mm 4.4°
10
86%
11:00
Voelt als: 3.3°
986.2 hPa 20.6 mm 4.8°
8
86%
14:00
Voelt als: 3.2°
990.8 hPa 21.6 mm 4.6°
8
86%
17:00
Voelt als: 3.1°
995.7 hPa 22.0 mm 4.8°
8
86%
20:00
Voelt als: 3.1°
1000.3 hPa 23.2 mm 4.6°
7
85%
23:00
Voelt als: 3.2°
1004.4 hPa 24.3 mm 4.8°
7
51%
 08:44     17:48    Daglengte: 9:04 Zaterdag 23 Okt
02:00
Voelt als: 3.4°
1008.0 hPa 24.3 mm 4.8°
7
67%
05:00
Voelt als: 3.0°
1010.9 hPa 15.7 mm 3.3°
5
68%
08:00
Voelt als: 3.2°
1012.8 hPa 23.5 mm 2.7°
3
61%
11:00
Voelt als: 5.6°
1014.9 hPa 12.8 mm 3.3°
2
72%
14:00
Voelt als: 5.9°
1016.1 hPa   1.7°
3
97%
17:00
Voelt als: 5.5°
1015.4 hPa   2.6°
2
94%
20:00
Voelt als: 3.6°
1013.8 hPa   2.3°
4
91%
23:00
Voelt als: 3.5°
1012.1 hPa   2.5°
6
93%
 08:47     17:45    Daglengte: 8:58 Zondag 24 Okt
02:00
Voelt als: 5.2°
1009.4 hPa 26.1 mm 4.0°
6
98%
05:00
Voelt als: 6.0°
1007.1 hPa 13.0 mm 4.4°
3
98%
08:00
Voelt als: 7.9°
1005.3 hPa   6.2°
3
98% warningclass
11:00
11°
1006.5 hPa 115.9 mm 6.8°
12
100% warningclass
14:00
11°
1007.2 hPa 115.9 mm 7.1°
10
100% warningclass
17:00
Voelt als: 6.5°
1008.9 hPa 40.4 mm 5.6°
3
1%
20:00
Voelt als: 6.3°
1008.0 hPa 41.1 mm 5.2°
4
1%
23:00
Voelt als: 6.6°
1006.7 hPa 41.5 mm 5.0°
3
1%
 08:50     17:42    Daglengte: 8:52 Maandag 25 Okt
02:00
Voelt als: 6.8°
1005.6 hPa 41.5 mm 4.6°
3
1%
05:00
Voelt als: 6.3°
1004.9 hPa 41.6 mm 4.7°
5
1%
08:00
Voelt als: 6.7°
1003.9 hPa 41.6 mm 5.0°
4
1%
11:00
Voelt als: 6.7°
1003.2 hPa 41.7 mm 4.3°
4
1%
14:00
10°
Voelt als: 7.7°
1001.8 hPa 41.7 mm 5.0°
3
1%
17:00
Voelt als: 8.2°
1000.6 hPa 41.9 mm 5.3°
2
1%
20:00
Voelt als: 6.2°
1002.9 hPa 46.3 mm 7.0°
3
1%
23:00
Voelt als: 5.3°
1004.1 hPa 49.9 mm 5.5°
3
1%
 08:53     17:39    Daglengte: 8:46 Dinsdag 26 Okt
02:00
Voelt als: 5.0°
1004.5 hPa 50.0 mm 5.2°
3
1%
05:00
Voelt als: 5.3°
1004.1 hPa 50.0 mm 3.8°
3
1%
08:00
Voelt als: 5.1°
1004.4 hPa 50.0 mm 2.9°
3
1%
11:00
Voelt als: 4.5°
1005.4 hPa 50.4 mm 4.3°
5
1%
14:00
Voelt als: 6.8°
1005.2 hPa 50.5 mm 3.8°
3
1%
17:00
Voelt als: 6.2°
1003.5 hPa 50.5 mm 3.7°
3
1%
20:00
Voelt als: 5.6°
1001.2 hPa 50.5 mm 3.4°
4
1%
23:00
Voelt als: 4.4°
999.3 hPa 51.4 mm 4.9°
6
1%
 08:56     17:36    Daglengte: 8:40 Woensdag 27 Okt
02:00
Voelt als: 5.3°
996.6 hPa 52.1 mm 5.1°
5
1%
05:00
Voelt als: 6.6°
993.9 hPa 52.1 mm 5.4°
5
1%
08:00
10°
Voelt als: 7.4°
992.4 hPa 52.2 mm 6.5°
5
1%
11:00
Voelt als: 7.3°
994.9 hPa 53.2 mm 7.7°
4
1%
14:00
10°
Voelt als: 6.1°
996.8 hPa 63.4 mm 8.7°
9
1%
17:00
10°
Voelt als: 5.0°
1000.0 hPa 66.7 mm 5.9°
13
1%
20:00
Voelt als: 5.5°
1002.9 hPa 67.0 mm 4.9°
8
1%
23:00
Voelt als: 4.0°
1003.8 hPa 67.1 mm 4.5°
5
0%
 08:59     17:33    Daglengte: 8:34 Donderdag 28 Okt
02:00
Voelt als: 4.4°
1003.6 hPa 67.2 mm 4.3°
4
1%
05:00
Voelt als: 4.9°
1002.3 hPa 67.2 mm 3.2°
4
1%
08:00
Voelt als: 4.8°
1000.7 hPa 67.2 mm 2.3°
4
1%
11:00
Voelt als: 4.6°
999.6 hPa   3.3°
4
1%
14:00
Voelt als: 5.2°
999.0 hPa 138.7 mm 5.8°
4
1%
20:00
10°
999.3 hPa 158.5 mm 9.2°
3
1%
 09:02     17:30    Daglengte: 8:28 Vrijdag 29 Okt
02:00
11°
1002.9 hPa 177.7 mm 9.7°
4
1%
08:00
Voelt als: 6.7°
1005.4 hPa 186.1 mm 7.2°
4
1%
14:00
11°
1010.2 hPa 186.2 mm 5.6°
12
0%
20:00
10°
Voelt als: 6.9°
1015.7 hPa 188.6 mm 5.9°
6
1%
 09:05     17:27    Daglengte: 8:22 Zaterdag 30 Okt
02:00
Voelt als: 5.6°
1018.3 hPa 189.1 mm 2.6°
3
1%
08:00
Voelt als: 5.3°
1017.9 hPa 189.1 mm 1.8°
3
1%
14:00
Voelt als: 6.8°
1015.6 hPa 190.0 mm 4.3°
3
1%
20:00
Voelt als: 6.8°
1012.7 hPa 190.7 mm 4.1°
3
1%
 09:08     17:24    Daglengte: 8:16 Zondag 31 Okt
02:00
10°
1011.8 hPa 190.9 mm 5.0°
4
1%
07:00
Voelt als: 5.3°
1002.6 hPa 1.3 mm 4.2°
3
90%
13:00
Voelt als: 6.3°
1002.9 hPa 0.9 mm 4.9°
3
84%
19:00
Voelt als: 5.0°
1002.2 hPa 0.6 mm 4.2°
3
85%
 09:11     17:21    Daglengte: 8:10 Maandag 01 Nov
01:00
Voelt als: 4.6°
1001.3 hPa 1.8 mm 3.7°
3
76%
07:00
Voelt als: 4.5°
1000.0 hPa 2.0 mm 3.6°
3
80%
13:00
Voelt als: 6.1°
999.5 hPa 1.7 mm 4.3°
2
74%
19:00
Voelt als: 5.0°
999.1 hPa 0.4 mm 3.5°
3
78%
 09:14     17:18    Daglengte: 8:04 Dinsdag 02 Nov
01:00
Voelt als: 4.6°
998.6 hPa 0.8 mm 2.9°
3
82%
07:00
Voelt als: 4.6°
997.3 hPa 0.4 mm 3.2°
3
84%
13:00
Voelt als: 6.7°
997.6 hPa 1.1 mm 4.2°
2
82%
19:00
Voelt als: 5.3°
998.3 hPa 1.2 mm 3.0°
2
75%
 09:17     17:15    Daglengte: 7:58 Woensdag 03 Nov
01:00
Voelt als: 5.1°
999.1 hPa 0.9 mm 2.3°
1
75%
07:00
Voelt als: 4.7°
999.7 hPa 1.1 mm 1.9°
1
75%
13:00
Voelt als: 5.7°
1000.9 hPa 1.5 mm 2.7°
1
78%
19:00
Voelt als: 5.4°
1002.0 hPa 1.3 mm 2.6°
1
86%
 09:20     17:12    Daglengte: 7:52 Donderdag 04 Nov
01:00
Voelt als: 4.2°
1002.5 hPa 1.4 mm 2.1°
1
88%
07:00
Voelt als: 3.2°
1002.5 hPa 1.5 mm 1.6°
2
86%
13:00
Voelt als: 3.6°
1003.6 hPa 1.9 mm 1.9°
2
74%
19:00
Voelt als: 2.2°
1004.2 hPa 1.5 mm 0.6°
2
67%
 09:23     17:09    Daglengte: 7:46 Vrijdag 05 Nov
01:00
Voelt als: 1.9°
1004.7 hPa 1.9 mm 0.2°
3
78%
07:00
Voelt als: 2.1°
1003.7 hPa 1.3 mm 0.4°
2
80%
  CAPE Lifted Index Hail Supercell Tornado SRH 3km CL BTM PRES CL TOP PRES Swiss DWD icon SMHI TS
 08:38     17:55    Daglengte: 9:17 Vandaag
12:00 187 J/kg 3.0 K 0 % 0 % 0 % 0 m²/s² 0 0 3.57 80
13:00 198 J/kg 2.4 K 0 % 0 % 0 % 0 m²/s² 0 0 2.97 80
14:00 226 J/kg 2.7 K 0 % 0 % 0 % 0 m²/s² 0 0 3.27 80
15:00 222 J/kg 3.1 K 0 % 0 % 0 % 0 m²/s² 0 0 3.64 80
16:00 219 J/kg 3.2 K 0 % 0 % 0 % 0 m²/s² 0 0 3.77 80
17:00 250 J/kg 3.0 K 0 % 0 % 0 % 0 m²/s² 0 0 3.54 80
18:00 202 J/kg 2.9 K 0 % 0 % 0 % 0 m²/s² 0 0 3.5 3
19:00 204 J/kg 3.1 K 0 % 0 % 0 % 0 m²/s² 0 0 3.73 80
20:00 270 J/kg 1.3 K 0 % 0 % 0 % 0 m²/s² 0 0 1.84 80
21:00 288 J/kg 0.2 K 0 % 0 % 0 % 0 m²/s² 0 0 0.74 80
22:00 290 J/kg 0.1 K 0 % 0 % 0 % 0 m²/s² 0 0 0.64 80
23:00 174 J/kg 0.4 K 0 % 0 % 0 % 0 m²/s² 0 0 0.94 80
 08:41     17:52    Daglengte: 9:11 Morgen
00:00 150 J/kg 0.0 K 0 % 0 % 0 % 0 m²/s² 0 0 0.51 80
01:00 155 J/kg -0.2 K 0 % 0 % 0 % 0 m²/s² 0 0 0.31 80
02:00 315 J/kg -0.7 K 0 % 0 % 0 % 0 m²/s² 0 0 -0.19 80
03:00 233 J/kg -0.3 K 0 % 0 % 0 % 0 m²/s² 0 0 0.15 80
04:00 204 J/kg 0.4 K 0 % 0 % 0 % 0 m²/s² 0 0 0.91 80
05:00 217 J/kg 1.0 K 0 % 0 % 0 % 0 m²/s² 0 0 1.54 80
06:00 214 J/kg 1.1 K 0 % 0 % 0 % 0 m²/s² 0 0 1.55 80
07:00 191 J/kg 1.8 K 0 % 0 % 0 % 0 m²/s² 0 0 2.37 80
08:00 146 J/kg 2.1 K 0 % 0 % 0 % 0 m²/s² 0 0 2.61 80
09:00 119 J/kg 2.4 K 0 % 0 % 0 % 0 m²/s² 0 0 2.97 80
10:00 140 J/kg 1.8 K 0 % 0 % 0 % 0 m²/s² 0 0 2.31 80
11:00 51 J/kg 3.0 K 0 % 0 % 0 % 0 m²/s² 0 0 3.57 80
12:00 120 J/kg 1.6 K 0 % 0 % 0 % 0 m²/s² 0 0 2.14 80
13:00 92 J/kg 2.7 K 0 % 0 % 0 % 0 m²/s² 0 0 3.27 80
14:00 107 J/kg 3.2 K 0 % 0 % 0 % 0 m²/s² 0 0 3.71 80
15:00 112 J/kg 4.1 K 0 % 0 % 0 % 0 m²/s² 0 0 4.58 80
16:00 119 J/kg 4.5 K 0 % 0 % 0 % 0 m²/s² 0 0 4.98 80
17:00 119 J/kg 5.2 K 0 % 0 % 0 % 0 m²/s² 0 0 5.68 80
18:00 97 J/kg 5.9 K 0 % 0 % 0 % 0 m²/s² 0 0 6.41 80
19:00 56 J/kg 6.7 K 0 % 0 % 0 % 0 m²/s² 0 0 7.21 80
20:00 92 J/kg 6.2 K 0 % 0 % 0 % 0 m²/s² 0 0 6.8 80
21:00 97 J/kg 6.3 K 0 % 0 % 0 % 0 m²/s² 0 0 7.2 80
22:00 90 J/kg 6.7 K 0 % 0 % 0 % 0 m²/s² 0 0 8.11 80
23:00 119 J/kg 6.9 K 0 % 0 % 0 % 0 m²/s² 0 0 9.12 80
 08:44     17:48    Daglengte: 9:04 Zaterdag 23 Okt
00:00 98 J/kg 7.7 K 0 % 0 % 0 % 0 m²/s² 0 0 11.72 80
01:00 101 J/kg 8.1 K 0 % 0 % 0 % 0 m²/s² 0 0 14.34 80
02:00 116 J/kg 8.1 K 0 % 0 % 0 % 0 m²/s² 0 0 14.13 80
03:00 97 J/kg 8.8 K 0 % 0 % 0 % 0 m²/s² 0 0 13.6 80
04:00 55 J/kg 9.3 K 0 % 0 % 0 % 0 m²/s² 0 0 13.74 80
05:00 54 J/kg 10.4 K 0 % 0 % 0 % 0 m²/s² 0 0 14.87 80
06:00 55 J/kg 11.1 K 0 % 0 % 0 % 0 m²/s² 0 0 14.55 80
07:00 48 J/kg 11.6 K 0 % 0 % 0 % 0 m²/s² 0 0 14.51 80
08:00 50 J/kg 12.2 K 0 % 0 % 0 % 0 m²/s² 0 0 14.6 80
09:00 51 J/kg 13.0 K 0 % 0 % 0 % 0 m²/s² 0 0 15.28 3
10:00 38 J/kg 13.6 K 0 % 0 % 0 % 0 m²/s² 0 0 15.46 3
11:00 49 J/kg 13.7 K 0 % 0 % 0 % 0 m²/s² 0 0 15.62 2
12:00 74 J/kg 13.1 K 0 % 0 % 0 % 0 m²/s² 0 0 14.3 3
13:00 67 J/kg 13.6 K 0 % 0 % 0 % 0 m²/s² 0 0 14.92 3
14:00 27 J/kg 14.4 K 0 % 0 % 0 % 0 m²/s² 0 0 14.85 3
15:00 23 J/kg 14.2 K 0 % 0 % 0 % 0 m²/s² 0 0 14.56 3
16:00 5 J/kg 15.1 K 0 % 0 % 0 % 0 m²/s² 0 0 15.46 3
17:00 0 J/kg 16.0 K 0 % 0 % 0 % 0 m²/s² 0 0 16.36 3
18:00 0 J/kg 16.3 K 0 % 0 % 0 % 0 m²/s² 0 0 16.57 3
19:00 0 J/kg 16.4 K 0 % 0 % 0 % 0 m²/s² 0 0 16.94 3
20:00 0 J/kg 16.6 K 0 % 0 % 0 % 0 m²/s² 0 0 17.41 3
21:00 0 J/kg 17.0 K 0 % 0 % 0 % 0 m²/s² 0 0 17.75 3
22:00 0 J/kg 17.0 K 0 % 0 % 0 % 0 m²/s² 0 0 17.36 3
23:00 0 J/kg 15.0 K 0 % 0 % 0 % 0 m²/s² 0 0 15.3 3
 08:47     17:45    Daglengte: 8:58 Zondag 24 Okt
00:00 0 J/kg 14.4 K 0 % 0 % 0 % 0 m²/s² 0 0 14.64 3
01:00 0 J/kg 14.8 K 0 % 0 % 0 % 0 m²/s² 0 0 15.01 61
02:00 0 J/kg 13.5 K 0 % 0 % 0 % 0 m²/s² 0 0 13.68 61
03:00 0 J/kg 11.9 K 0 % 0 % 0 % 0 m²/s² 0 0 12.08 61
04:00 0 J/kg 10.9 K 0 % 0 % 0 % 0 m²/s² 0 0 15.04 61
05:00 0 J/kg 9.8 K 0 % 0 % 0 % 0 m²/s² 0 0 15.77 3
06:00 0 J/kg 10.1 K 0 % 0 % 0 % 0 m²/s² 0 0 12.35 3
07:00 0 J/kg 10.0 K 0 % 0 % 0 % 0 m²/s² 0 0 11.26 3
08:00 0 J/kg 9.2 K 0 % 0 % 0 % 0 m²/s² 0 0 9.56 3
09:00 0 J/kg 7.8 K 0 % 0 % 0 % 0 m²/s² 0 0 7.98
10:00 0 J/kg 6.9 K 0 % 0 % 0 % 0 m²/s² 0 0 9.6
11:00 0 J/kg 6.3 K 0 % 0 % 0 % 0 m²/s² 0 0 8.7
Temp Baro Wind Neerslag
  EWN Forecast EWN WRFDA DWD ICON FMI HIRLAM MET Norway GFS
 08:38     17:55    Daglengte: 9:17 Vandaag
14:00 6.7° 978.9 hPa 11.7 m/s 12.1 mm 5.4° 976.4 hPa 13.0 m/s 22.1 mm 4.8° 979.2 hPa 10.2 m/s 10.2 mm 6.9° 979.6 hPa 11.3 m/s 0.0 mm 5.8° 981.2 hPa 12.3 m/s
17:00 6.4° 980.7 hPa 12.3 m/s 7.8 mm 4.5° 977.5 hPa 13.5 m/s 28.6 mm 4.6° 981.5 hPa 10.9 m/s 3.0 mm 6.7° 981.0 hPa 12.0 m/s 0.0 mm 5.8° 982.8 hPa 12.7 m/s
20:00 6.3° 981.7 hPa 11.9 m/s 9.3 mm 4.8° 976.4 hPa 14.4 m/s 36.5 mm 4.1° 982.7 hPa 10.4 m/s 2.7 mm 6.4° 981.9 hPa 11.4 m/s 0.0 mm 5.9° 983.5 hPa 13.5 m/s
23:00 6.2° 982.5 hPa 11.8 m/s 12.3 mm 5.9° 976.2 hPa 12.5 m/s 50.2 mm 4.2° 984.1 hPa 9.8 m/s 3.9 mm 6.2° 982.7 hPa 11.5 m/s 0.0 mm 5.9° 983.8 hPa 13.4 m/s
 08:41     17:52    Daglengte: 9:11 Morgen
02:00 6.5° 982.5 hPa 11.4 m/s 14.4 mm 5.9° 976.2 hPa 12.8 m/s 57.7 mm 4.0° 984.5 hPa 8.8 m/s 4.7 mm 6.7° 982.5 hPa 11.1 m/s 0.0 mm 6.1° 984.2 hPa 12.9 m/s
05:00 6.6° 982.4 hPa 11.1 m/s 16.7 mm 5.8° 977.4 hPa 12.2 m/s 67.0 mm 4.4° 985.0 hPa 8.7 m/s 4.9 mm 6.9° 982.4 hPa 10.7 m/s 0.0 mm 6.5° 984.9 hPa 11.9 m/s
08:00 6.9° 983.0 hPa 10.1 m/s 18.6 mm 5.4° 979.7 hPa 10.3 m/s 77.5 mm 4.9° 985.9 hPa 7.8 m/s 4.0 mm 7.2° 983.0 hPa 10.2 m/s 0.0 mm 6.5° 986.1 hPa 11.1 m/s
11:00 7.4° 986.2 hPa 7.9 m/s 20.6 mm 5.4° 984.4 hPa 7.7 m/s 87.6 mm 5.4° 988.6 hPa 7.0 m/s 3.6 mm 7.9° 985.3 hPa 8.4 m/s 0.0 mm 6.0° 989.0 hPa 10.9 m/s
14:00 7.4° 990.8 hPa 8.4 m/s 21.6 mm 6.5° 989.1 hPa 7.3 m/s 97.7 mm 5.6° 992.4 hPa 7.4 m/s 4.0 mm 7.7° 990.6 hPa 8.5 m/s 0.0 mm 6.6° 993.6 hPa 10.7 m/s
17:00 7.3° 995.7 hPa 8.3 m/s 22.0 mm 6.5° 994.6 hPa 7.3 m/s 102.5 mm 5.5° 997.1 hPa 5.8 m/s 3.1 mm 7.6° 994.8 hPa 8.8 m/s 0.0 mm 6.7° 998.1 hPa 9.1 m/s
20:00 7.1° 1000.3 hPa 7.2 m/s 23.2 mm 6.3° 999.8 hPa 6.6 m/s 105.8 mm 5.4° 1001.8 hPa 5.2 m/s 2.9 mm 7.3° 998.8 hPa 8.5 m/s 0.0 mm 7.0° 1004.2 hPa 9.3 m/s
23:00 7.1° 1004.4 hPa 7.0 m/s 24.3 mm 6.0° 1004.1 hPa 4.7 m/s 111.1 mm 5.5° 1005.8 hPa 4.4 m/s 2.5 mm 7.2° 1002.7 hPa 7.7 m/s 0.0 mm 7.1° 1008.8 hPa 9.0 m/s
 08:44     17:48    Daglengte: 9:04 Zaterdag 23 Okt
02:00 7.2° 1008.0 hPa 6.9 m/s 24.3 mm 6.3° 1007.6 hPa 5.3 m/s 113.1 mm 5.3° 1009.5 hPa 4.0 m/s 2.4 mm 7.3° 1006.2 hPa 7.6 m/s 0.0 mm 6.9° 1011.9 hPa 6.3 m/s
05:00 6.2° 1010.9 hPa 4.6 m/s 15.7 mm 5.6° 1010.2 hPa 3.8 m/s 113.5 mm 5.2° 1012.1 hPa 3.1 m/s 1.6 mm 6.3° 1014.1 hPa 3.6 m/s
08:00 5.7° 1012.8 hPa 3.3 m/s 23.5 mm 4.5° 1012.0 hPa 2.4 m/s 113.5 mm 5.1° 1013.9 hPa 2.6 m/s 1.1 mm 5.0° 1016.1 hPa 3.4 m/s
11:00 7.3° 1014.9 hPa 2.5 m/s 12.8 mm 7.2° 1014.0 hPa 1.6 m/s 113.6 mm 6.1° 1016.0 hPa 1.4 m/s 0.2 mm 4.8° 1017.9 hPa 3.2 m/s
14:00 7.8° 1016.1 hPa 3.0 m/s 0.0 mm 8.0° 1016.0 hPa 4.8 m/s 114.2 mm 7.0° 1016.7 hPa 0.7 m/s 0.0 mm 5.9° 1018.3 hPa 2.9 m/s
17:00 7.1° 1015.4 hPa 2.3 m/s 0.0 mm 6.9° 1015.5 hPa 4.8 m/s 114.4 mm 6.5° 1015.7 hPa 1.3 m/s 0.0 mm 6.0° 1017.5 hPa 2.2 m/s
20:00 6.6° 1013.8 hPa 4.4 m/s 0.0 mm 6.5° 1015.1 hPa 4.9 m/s 114.4 mm 5.7° 1014.0 hPa 1.0 m/s 0.0 mm 5.0° 1016.5 hPa 2.8 m/s
23:00 7.0° 1012.1 hPa 5.6 m/s 0.0 mm 6.9° 1013.5 hPa 7.7 m/s 114.4 mm 5.8° 1012.6 hPa 0.9 m/s 0.0 mm 4.8° 1014.9 hPa 3.0 m/s
 08:47     17:45    Daglengte: 8:58 Zondag 24 Okt
02:00 8.4° 1009.4 hPa 5.8 m/s 26.1 mm 7.6° 1011.6 hPa 7.3 m/s 115.4 mm 6.5° 1009.7 hPa 2.3 m/s 0.7 mm 5.5° 1013.0 hPa 2.6 m/s
05:00 8.0° 1007.1 hPa 3.1 m/s 13.0 mm 8.8° 1008.5 hPa 9.1 m/s 115.9 mm 7.8° 1006.7 hPa 1.6 m/s 0.3 mm 6.2° 1010.6 hPa 3.6 m/s
08:00 9.4° 1005.3 hPa 2.9 m/s 0.0 mm 9.6° 1006.7 hPa 10.7 m/s 115.9 mm 9.4° 1005.0 hPa 0.9 m/s 0.0 mm 5.7° 1009.6 hPa 4.4 m/s
11:00 11.0° 1006.5 hPa 11.8 m/s 115.9 mm 11.0° 1006.5 hPa 11.8 m/s 115.9 mm 7.4° 1009.1 hPa 4.0 m/s
14:00 11.0° 1007.2 hPa 10.1 m/s 115.9 mm 11.0° 1007.2 hPa 10.1 m/s 115.9 mm 8.7° 1009.4 hPa 4.1 m/s
17:00 8.5° 1008.9 hPa 3.5 m/s 40.4 mm 8.5° 1008.9 hPa 3.5 m/s 40.4 mm
20:00 8.5° 1008.0 hPa 3.7 m/s 41.1 mm 8.5° 1008.0 hPa 3.7 m/s 41.1 mm
23:00 8.6° 1006.7 hPa 3.3 m/s 41.5 mm 8.6° 1006.7 hPa 3.3 m/s 41.5 mm
 08:50     17:42    Daglengte: 8:52 Maandag 25 Okt
02:00 8.7° 1005.6 hPa 3.2 m/s 41.5 mm 8.7° 1005.6 hPa 3.2 m/s 41.5 mm
05:00 8.8° 1004.9 hPa 4.6 m/s 41.6 mm 8.8° 1004.9 hPa 4.6 m/s 41.6 mm
08:00 8.9° 1003.9 hPa 4.0 m/s 41.6 mm 8.9° 1003.9 hPa 4.0 m/s 41.6 mm
11:00 9.0° 1003.2 hPa 4.2 m/s 41.7 mm 9.0° 1003.2 hPa 4.2 m/s 41.7 mm
14:00 9.5° 1001.8 hPa 3.4 m/s 41.7 mm 9.5° 1001.8 hPa 3.4 m/s 41.7 mm
17:00 9.2° 1000.6 hPa 2.1 m/s 41.9 mm 9.2° 1000.6 hPa 2.1 m/s 41.9 mm
20:00 8.2° 1002.9 hPa 3.2 m/s 46.3 mm 8.2° 1002.9 hPa 3.2 m/s 46.3 mm
23:00 7.5° 1004.1 hPa 3.3 m/s 49.9 mm 7.5° 1004.1 hPa 3.3 m/s 49.9 mm
 08:53     17:39    Daglengte: 8:46 Dinsdag 26 Okt
02:00 7.2° 1004.5 hPa 3.2 m/s 50.0 mm 7.2° 1004.5 hPa 3.2 m/s 50.0 mm
05:00 7.2° 1004.1 hPa 2.8 m/s 50.0 mm 7.2° 1004.1 hPa 2.8 m/s 50.0 mm
08:00 7.0° 1004.4 hPa 2.7 m/s 50.0 mm 7.0° 1004.4 hPa 2.7 m/s 50.0 mm
11:00 7.5° 1005.4 hPa 4.8 m/s 50.4 mm 7.5° 1005.4 hPa 4.8 m/s 50.4 mm
14:00 8.7° 1005.2 hPa 3.3 m/s 50.5 mm 8.7° 1005.2 hPa 3.3 m/s 50.5 mm
17:00 8.3° 1003.5 hPa 3.3 m/s 50.5 mm 8.3° 1003.5 hPa 3.3 m/s 50.5 mm
20:00 8.1° 1001.2 hPa 4.1 m/s 50.5 mm 8.1° 1001.2 hPa 4.1 m/s 50.5 mm
23:00 7.6° 999.3 hPa 5.7 m/s 51.4 mm 7.6° 999.3 hPa 5.7 m/s 51.4 mm
 08:56     17:36    Daglengte: 8:40 Woensdag 27 Okt
02:00 8.2° 996.6 hPa 5.1 m/s 52.1 mm 8.2° 996.6 hPa 5.1 m/s 52.1 mm
05:00 9.2° 993.9 hPa 5.1 m/s 52.1 mm 9.2° 993.9 hPa 5.1 m/s 52.1 mm
08:00 9.7° 992.4 hPa 4.7 m/s 52.2 mm 9.7° 992.4 hPa 4.7 m/s 52.2 mm
11:00 9.4° 994.9 hPa 3.8 m/s 53.2 mm 9.4° 994.9 hPa 3.8 m/s 53.2 mm
14:00 9.8° 996.8 hPa 9.2 m/s 63.4 mm 9.8° 996.8 hPa 9.2 m/s 63.4 mm
17:00 9.5° 1000.0 hPa 12.9 m/s 66.7 mm 9.5° 1000.0 hPa 12.9 m/s 66.7 mm
20:00 9.0° 1002.9 hPa 7.7 m/s 67.0 mm 9.0° 1002.9 hPa 7.7 m/s 67.0 mm
23:00 7.3° 1003.8 hPa 5.5 m/s 67.1 mm 7.3° 1003.8 hPa 5.5 m/s 67.1 mm
 08:59     17:33    Daglengte: 8:34 Donderdag 28 Okt
02:00 7.0° 1003.6 hPa 3.8 m/s 67.2 mm 7.0° 1003.6 hPa 3.8 m/s 67.2 mm
05:00 7.5° 1002.3 hPa 3.9 m/s 67.2 mm 7.5° 1002.3 hPa 3.9 m/s 67.2 mm
08:00 7.2° 1000.7 hPa 3.6 m/s 67.2 mm 7.2° 1000.7 hPa 3.6 m/s 67.2 mm
11:00 7.4° 999.6 hPa 4.3 m/s 67.4 mm 7.4° 999.6 hPa 4.3 m/s 67.4 mm
14:00 7.7° 999.0 hPa 3.9 m/s 71.3 mm 7.7° 999.0 hPa 3.9 m/s 71.3 mm
20:00 10.2° 999.3 hPa 3.0 m/s 82.6 mm 10.2° 999.3 hPa 3.0 m/s 82.6 mm
 09:02     17:30    Daglengte: 8:28 Vrijdag 29 Okt
02:00 10.5° 1002.9 hPa 4.0 m/s 91.9 mm 10.5° 1002.9 hPa 4.0 m/s 91.9 mm
08:00 8.9° 1005.4 hPa 3.9 m/s 93.1 mm 8.9° 1005.4 hPa 3.9 m/s 93.1 mm
14:00 11.0° 1010.2 hPa 11.5 m/s 93.1 mm 11.0° 1010.2 hPa 11.5 m/s 93.1 mm
20:00 9.7° 1015.7 hPa 5.9 m/s 94.5 mm 9.7° 1015.7 hPa 5.9 m/s 94.5 mm
 09:05     17:27    Daglengte: 8:22 Zaterdag 30 Okt
02:00 7.5° 1018.3 hPa 2.9 m/s 94.5 mm 7.5° 1018.3 hPa 2.9 m/s 94.5 mm
08:00 7.3° 1017.9 hPa 2.9 m/s 94.5 mm 7.3° 1017.9 hPa 2.9 m/s 94.5 mm
14:00 8.6° 1015.6 hPa 3.0 m/s 95.4 mm 8.6° 1015.6 hPa 3.0 m/s 95.4 mm
20:00 8.8° 1012.7 hPa 3.5 m/s 95.4 mm 8.8° 1012.7 hPa 3.5 m/s 95.4 mm
 09:08     17:24    Daglengte: 8:16 Zondag 31 Okt
02:00 10.2° 1011.8 hPa 3.6 m/s 95.5 mm 10.2° 1011.8 hPa 3.6 m/s 95.5 mm
07:00 7.2° 1002.6 hPa 2.7 m/s 1.3 mm
13:00 8.0° 1002.9 hPa 2.7 m/s 0.9 mm
19:00 7.1° 1002.2 hPa 3.0 m/s 0.6 mm
 09:11     17:21    Daglengte: 8:10 Maandag 01 Nov
01:00 6.7° 1001.3 hPa 3.0 m/s 1.8 mm
07:00 6.6° 1000.0 hPa 2.9 m/s 2.0 mm
13:00 7.7° 999.5 hPa 2.5 m/s 1.7 mm
19:00 6.8° 999.1 hPa 2.6 m/s 0.4 mm
 09:14     17:18    Daglengte: 8:04 Dinsdag 02 Nov
01:00 6.6° 998.6 hPa 2.7 m/s 0.8 mm
07:00 6.5° 997.3 hPa 2.6 m/s 0.4 mm
13:00 7.4° 997.6 hPa 1.5 m/s 1.1 mm
19:00 6.2° 998.3 hPa 1.6 m/s 1.2 mm
 09:17     17:15    Daglengte: 7:58 Woensdag 03 Nov
01:00 5.6° 999.1 hPa 1.2 m/s 0.9 mm
07:00 5.3° 999.7 hPa 1.2 m/s 1.1 mm
13:00 6.3° 1000.9 hPa 1.3 m/s 1.5 mm
19:00 5.4° 1002.0 hPa 0.9 m/s 1.3 mm
 09:20     17:12    Daglengte: 7:52 Donderdag 04 Nov
01:00 5.1° 1002.5 hPa 1.4 m/s 1.4 mm
07:00 4.7° 1002.5 hPa 1.8 m/s 1.5 mm
13:00 5.4° 1003.6 hPa 2.1 m/s 1.9 mm
19:00 4.2° 1004.2 hPa 2.2 m/s 1.5 mm
 09:23     17:09    Daglengte: 7:46 Vrijdag 05 Nov
01:00 4.3° 1004.7 hPa 2.6 m/s 1.9 mm
07:00 4.3° 1003.7 hPa 2.5 m/s 1.3 mm
FMI Hirlam - 7.5 km EWN WRFDA - 12 km DWD ICON - 7 km GFS - 25 km Basiskaart






























































Updatetijd (Europe/Amsterdam) Resolutie Lengte Stap
FMI Hirlam 07:30, 13:30, 19:30, 01:30 7.5 km 49h 1h
EWN WRFDA 09:45, 15:45, 21:45, 03:45 12 km 73h 1h
DWD ICON 06:00, 12:00, 18:00, 00:00 7 km 75h 1h
GFS 08:30, 14:30, 20:30, 02:30 25 km 237h 3h
30+ mm
25-30 mm
20-25 mm
15-20 mm
10-15 mm
6-10 mm
4-6 mm
2-4 mm
1-2 mm
0.5-1 mm
0.2-0.5 mm
0.1-0.2 mm
30+ mm
25-30 mm
20-25 mm
15-20 mm
10-15 mm
6-10 mm
4-6 mm
2-4 mm
1-2 mm
0.5-1 mm
0.2-0.5 mm
0.1-0.2 mm
Sneeuwval
Natte sneeuw
Hagel
Vorst
30+ mm
25-30 mm
20-25 mm
15-20 mm
10-15 mm
6-10 mm
4-6 mm
2-4 mm
1-2 mm
0.5-1 mm
0.2-0.5 mm
0.1-0.2 mm
Sneeuwval
Natte sneeuw
Hagel
Vorst
Onweer
50 mm
40 mm
30 mm
26 mm
22 mm
18 mm
14 mm
10 mm
9 mm
8 mm
7 mm
6 mm
5 mm
4.5 mm
4 mm
3.5 mm
3 mm
2.5 mm<